风云二号C星 (FENGYUN 2C)

导读

FENGYUN 2C(风云二号C星)是中国自主研制的第一代地球同步轨道静止气象卫星,于2004年10月19日发射升空,定点于东经105度赤道上空。它可获取可见光云图、红外云图与水汽分布,能收集气象水文海洋观测数据,播发气象信息,监测空间环境,为天气预报、气候监测和灾害预警提供关键支撑,提升了中国气象观测能力。

基本信息
目录编号:
28451
目录名称:
FENGYUN 2C
国际标识:
2004-042A
轨道中心:
EARTH
卫星名称:
风云二号C星
卫星全名:
风云二号C星 (FENGYUN 2C)
卫星状态:
在轨 (已飞行7997 天)
发射日期:
2004-10-19 UTC
国别 :
中国 (CN)
星等 :
--
该卫星已列入 空间交会检测服务 Space Conjunction Data Service (SCDS) ,当前飞行风险评估等级: 无高风险
轨道信息
数据来源 国际轨道数据 AOE轨道数据
星历时间 2026-09-11T02:06:19+0800
13小时前
查看轨道信息
2026-09-07T00:00:00+0800
4天前
查看轨道信息
半长轴 42789.246km 42789.158km
偏心率 0.0002814 0.0003051
轨道倾角 12.571° 12.565°
近地点辐角 357.122° 358.483°
升交点赤经 30.517° 30.550°
平近点角 16.912° 12.102°
近地点 36399.068km 36397.966km
远地点 36423.15km 36424.076km
周期 1468.120分钟 1468.116分钟
每日圈数 0.980846 0.980849
详细信息
平衡模式:
三轴稳定
覆盖范围:
亚洲
运营商:
夏威夷科学技术博物馆
运营商所在国:
美国
制造商(研发单位):
上海航天技术研究院
制造商所在国:
中国
使用方式:
暂无
卫星简介
风云气象卫星系列(FENGYUN Meteorological Satellite)是中国于1977年开始研制的气象卫星系列,目前发射了风云一号、风云二号、风云三号、风云四号等卫星系列。其中,风云二号系列、风云四号系列为风云静止卫星,风云一号系列、风云三号系列为风云极轨卫星。该卫星已退役。
2D轨道图
3D轨道图
轨道高度分析图
轨道倾角分析图
轨道综合分析图
查看轨道综合分析图
与全量物体交会距离演化趋势
与全量物体交会风险概率演化趋势